Weather WX

World > North America > United States > Ohio

Irondale, Ohio Regional Weather

Lat: 40.57N, Lon: 80.73W
Wx Zone: OHZ050
Warning FLW WEATHER ALERT - (More Info. Click Here) Warning
Feedback

Irondale, OH Regional Weather

Expires:201906200400;;763749
ASUS41 KCLE 200312
RWRCLE
OHIO REGIONAL WEATHER ROUNDUP
NATIONAL WEATHER SERVICE WILMINGTON, OH
1100 PM EDT WED JUN 19 2019

NOTE: "FAIR" INDICATES FEW OR NO CLOUDS BELOW 12,000 FEET WITH NO
SIGNIFICANT WEATHER AND/OR OBSTRUCTIONS TO VISIBILITY.


OHZ036-037-039>041-045>050-054>059-063>069-073>076-082>088-200400-
  CENTRAL AND SOUTHEAST OHIO
  
CITY           SKY/WX    TMP DP  RH WIND       PRES   REMARKS
COLUMBUS       LGT RAIN  68  66  93 E5        29.66F                  
OSU AIRPORT    RAIN      69  68  96 E5        29.66F FOG              
BOLTON FIELD   RAIN      68  68 100 E3        29.67F                  
RICKENBACK AFB LGT RAIN  67  67 100 SE3       29.66F                  
NEWARK         RAIN      69  66  90 N5        29.68S FOG              
MARION         LGT RAIN  68  65  90 SE12      29.68F                  
LANCASTER      LGT RAIN  68  67  96 CALM      29.67F                  
ZANESVILLE     FAIR      71  68  90 E3        29.68S                  
NEW PHILLY     TSTM      68  66  93 CALM      29.70R FOG              
$$
  

SKY/WX - Weather  TMP - Temperature  DP - Dew Point  RH - Relative Humidity
WIND - Wind Direction/Speed PRES - Barometric Pressure VSB - Visibility
WCI - Wind Chill Index E13G22 Wind - East Wind 13 mph/Gusts of 22 mph